TDRS 7

导读 | 豆包AI

TDRS 7(跟踪与数据中继卫星7号)是美国NASA研制的TDRS系列中继卫星,于1995年7月13日发射升空。该卫星主要为低轨航天器(如国际空间站、哈勃望远镜等)提供高速数据中继与通信支持,构建了全球覆盖的空间通信网络。作为NASA近空通信体系的重要成员,它已在轨服役超过三十年,持续保障各类航天任务的数据传输,目前仍承担关键通信职能,计划将服役至2030年代。

Basic Information
目录编号:
23613
目录名称:
TDRS 7
国际标识:
1995-035B
轨道中心:
EARTH
卫星名称:
TDRS 7
卫星全名:
--
卫星状态:
在轨 (已飞行11192 天)
发射日期:
1995-07-13 UTC
国别 :
美国 (US)
星等 :
--
Orbit Information
数据来源 国际轨道数据 AOE轨道数据
星历时间 2026-03-04T20:27:07+0800
7小时前
查看轨道信息
2026-03-05T00:00:00+0800
3小时前
查看轨道信息
半长轴 42163.439km 42163.467km
偏心率 0.0008186 0.0008204
轨道倾角 13.420° 13.420°
近地点辐角 47.472° 47.715°
升交点赤经 348.908° 348.906°
平近点角 41.684° 94.809°
近地点 35750.787km 35750.739km
远地点 35819.817km 35819.921km
周期 1436.031分钟 1436.032分钟
每日圈数 1.002764 1.002763
Detailed Information
使用方式:
暂无
2D Orbit Map
3D Orbit Map
Orbit Altitude Analysis Chart
Orbit Inclination Analysis Chart
Orbit Comprehensive Analysis Chart
View Comprehensive Chart